Location: Newark
(54.6833°N, 25.2833°E)
Time: 18:46:27
(UTC+00:00)

A-11 Canister half - Pass Details

Date: 22 January 2021
Orbit: 1525 x 1684 km, 47.3° (Epoch: 05 March)

Event Time Altitude Azimuth Distance (km) Brightness Sun altitude
Rises 15:13:36 0° 246° (WSW) 4,694 14.5 -5.3°
Reaches altitude 10° 15:16:41 10° 242° (WSW) 3,726 12.9 -5.7°
Maximum altitude 15:25:44 54° 169° (S) 1,871 9.6 -6.9°
Drops below altitude 10° 15:35:04 10° 96° (E) 3,846 10.6 -8.2°
Enters shadow 15:36:41 - 94° (E) 4,342 10.8 -8.4°
